Weather History for KAMW - March, 2014

Change the Weather History Date:

Sunday, March 30, 2014

  Actual Average Record
Temperature  
Mean Temperature 51 °F 43 °F  
Max Temperature 69 °F 55 °F 75 °F (2015)
Min Temperature 33 °F 32 °F 21 °F (2003)
Degree Days  
Heating Degree Days 14 22  
Month to date heating degree days 1036 850  
Since 1 July heating degree days 6902 6135  
Cooling Degree Days 0 0  
Month to date cooling degree days 0 0  
Year to date cooling degree days 0 0  
Moisture  
Dew Point 32 °F    
Average Humidity 55    
Maximum Humidity 82    
Minimum Humidity 27    
Precipitation  
Precipitation 0.00 in 0.09 in 1.42 in (1993)
Month to date precipitation 0.69 2.01  
Sea Level Pressure  
Sea Level Pressure 29.94 in    
Wind  
Wind Speed 14 mph (SSE)    
Max Wind Speed 23 mph    
Max Gust Speed 30 mph    
Visibility 9 miles    
Events      
T = Trace of Precipitation, MM = Missing Value Source: NWS Daily Summary

Daily Weather History Graph

Daily Weather History Graph

Search for Another Location

Airport or City:

Trip Planner

Search our weather history database for the weather conditions in past years. The results will help you decide how hot, cold, wet, or windy it might be!

Date:

Astronomy

Mar. 30, 2014 Rise Set
Actual Time 7:00 AM CDT 7:37 PM CDT
Civil Twilight 6:32 AM CDT 8:06 PM CDT
Nautical Twilight 5:59 AM CDT 8:39 PM CDT
Astronomical Twilight 5:25 AM CDT 9:13 PM CDT
Moon 6:46 AM CDT 7:51 PM CDT
Length of Visible Light 13h 33m
Length of Day
12h 37m
Waning Crescent, 0% of the Moon is Illuminated
Mar 30
Waning Crescent
Mar 30
New
Apr 7
First Quarter
Apr 15
Full
Apr 22
Last Quarter

Hourly Weather History & Observations

Time (CDT) Temp. Windchill Dew Point Humidity Pressure Visibility Wind Dir Wind Speed Gust Speed Precip Events Conditions
12:53 AM 35.1 °F 27.9 °F 28.0 °F 76% 30.13 in 10.0 mi SSE 9.2 mph - N/A   Clear
1:53 AM 35.1 °F 28.6 °F 28.0 °F 76% 30.11 in 10.0 mi SSE 8.1 mph - N/A   Clear
2:53 AM 34.0 °F 27.2 °F 28.0 °F 79% 30.09 in 10.0 mi SE 8.1 mph - N/A   Clear
3:53 AM 34.0 °F 27.2 °F 28.0 °F 79% 30.06 in 10.0 mi SE 8.1 mph - N/A   Clear
4:53 AM 33.1 °F 24.9 °F 28.0 °F 82% 30.05 in 10.0 mi SSE 10.4 mph - N/A   Clear
5:53 AM 34.0 °F 26.0 °F 28.0 °F 79% 30.05 in 10.0 mi SSE 10.4 mph - N/A   Clear
6:53 AM 34.0 °F 25.5 °F 28.9 °F 82% 30.05 in 9.0 mi SSE 11.5 mph - N/A   Clear
7:53 AM 35.1 °F 27.9 °F 30.0 °F 82% 30.04 in 8.0 mi SSE 9.2 mph - N/A   Clear
8:53 AM 39.9 °F 32.9 °F 32.0 °F 73% 30.02 in 9.0 mi SSE 11.5 mph - N/A   Clear
9:53 AM 46.9 °F - 33.1 °F 59% 30.01 in 8.0 mi South 15.0 mph - N/A   Clear
10:53 AM 55.0 °F - 35.1 °F 47% 30.00 in 8.0 mi South 19.6 mph - N/A   Clear
11:53 AM 61.0 °F - 34.0 °F 36% 29.96 in 7.0 mi South 19.6 mph 28.8 mph N/A   Clear
12:53 PM 64.0 °F - 34.0 °F 33% 29.93 in 8.0 mi South 20.7 mph 27.6 mph N/A   Clear
1:53 PM 66.9 °F - 35.1 °F 31% 29.90 in 8.0 mi South 17.3 mph 25.3 mph N/A   Clear
2:53 PM 66.9 °F - 34.0 °F 30% 29.86 in 10.0 mi South 19.6 mph 26.5 mph N/A   Clear
3:53 PM 68.0 °F - 33.1 °F 27% 29.84 in 10.0 mi South 15.0 mph 27.6 mph N/A   Clear
4:53 PM 68.0 °F - 34.0 °F 28% 29.81 in 10.0 mi South 21.9 mph - N/A   Clear
5:53 PM 68.0 °F - 34.0 °F 28% 29.80 in 10.0 mi South 16.1 mph - N/A   Clear
6:53 PM 63.0 °F - 35.1 °F 35% 29.79 in 10.0 mi SSE 12.7 mph - N/A   Clear
7:53 PM 57.9 °F - 34.0 °F 41% 29.79 in 10.0 mi SSE 11.5 mph - N/A   Clear
8:53 PM 57.0 °F - 34.0 °F 42% 29.80 in 10.0 mi SSE 13.8 mph - N/A   Clear
9:53 PM 55.0 °F - 34.0 °F 45% 29.79 in 10.0 mi SSE 11.5 mph - N/A   Clear
10:53 PM 53.1 °F - 33.1 °F 47% 29.78 in 10.0 mi SSE 11.5 mph - N/A   Clear
11:53 PM 52.0 °F - 33.1 °F 49% 29.78 in 10.0 mi SSE 12.7 mph - N/A   Clear